GFSFLT1_500_rhum_072.txt.gz
RH
27 31 20 15 18 19 30 31 20 70 49 85 84 72 70 82 81 81 97 97 93 96 96 96 97 96 98 96 94 95 94 96
24 31 17 13 17 22 35 36 31 63 26 76 88 85 86 83 80 86 94 94 93 96 98 97 98 96 94 99 97 96 97 96
29 20 14 12 16 23 46 38 32 31 42 67 76 92 94 96 95 96 95 91 92 93 96 94 92 93 90 98 96 97 96 96
29 16 13 10 16 28 41 50 42 42 71 69 52 77 96 95 95 93 91 89 92 93 96 94 94 89 90 92 98 94 96 96
19 14 15 14 10 16 37 44 50 52 55 60 46 33 48 54 61 71 78 83 85 91 93 95 94 90 86 96 97 96 97 95
16 18 17 17 10 9 11 38 33 42 46 51 49 38 32 42 45 44 55 71 79 73 88 90 85 85 94 95 97 97 96 96
24 23 19 18 18 10 6 8 18 19 21 25 31 45 46 47 68 65 45 53 88 74 82 75 79 84 95 96 96 98 98 95
26 29 23 18 17 20 16 14 9 7 6 7 13 21 54 54 61 61 65 70 70 83 84 86 93 100 99 97 97 97 96 96
26 31 26 22 16 20 22 22 22 22 20 14 7 8 33 61 68 68 64 70 47 32 67 86 97 94 100 100 100 99 96 98
29 27 27 26 16 19 19 21 25 26 24 21 19 18 9 18 27 33 31 26 19 30 35 39 70 86 93 95 94 93 96 97
22 28 32 30 24 21 30 28 22 18 22 26 29 27 21 21 15 12 16 19 20 21 25 34 39 37 34 41 47 67 70 79
26 23 37 31 29 28 28 30 32 20 18 18 27 36 42 40 33 26 20 19 18 19 21 22 21 24 39 40 42 46 48 50
22 31 30 32 33 31 29 26 26 32 21 22 22 22 29 36 46 52 50 45 55 45 47 61 60 54 26 22 36 27 29 54
28 31 42 37 36 37 38 36 37 23 27 24 25 27 32 32 26 22 28 39 48 48 44 49 57 61 63 35 50 64 66 43
38 28 37 40 47 45 45 46 47 43 33 33 31 38 42 38 28 27 25 24 23 24 22 20 20 32 66 68 53 57 63 62
96 77 53 46 50 55 58 63 58 57 52 41 42 49 46 34 35 34 35 36 30 29 30 27 20 16 16 18 17 16 19 34
72 66 46 44 42 43 48 77 84 74 69 57 44 45 49 50 48 51 57 38 34 42 36 37 40 30 15 11 11 13 16 18
91 72 60 57 48 64 69 73 65 70 79 82 73 53 46 57 65 72 66 63 62 43 44 48 48 47 47 42 35 23 16 14
99 97 93 84 84 100 99 84 71 90 99 98 95 73 61 51 60 65 77 87 65 58 67 63 54 50 43 49 54 55 46 30

GFSFLT1_500_rhum_075.txt.gz
RH
11 22 30 22 12 13 14 27 35 32 66 65 82 87 77 74 75 72 76 82 86 83 94 94 92 91 96 91 96 96 94 89
13 23 33 14 12 15 20 31 34 30 67 38 74 95 86 86 84 77 75 85 84 92 97 88 96 98 81 83 96 97 98 97
14 23 21 12 12 20 22 39 37 34 32 53 91 95 85 79 90 96 92 96 89 94 96 93 95 98 92 90 98 89 88 100
14 28 15 13 10 15 26 39 45 40 36 56 84 80 89 92 96 96 97 96 100 96 97 96 95 97 93 89 88 87 78 98
18 22 16 16 11 10 13 37 47 48 47 66 56 37 95 81 91 96 100 100 98 97 90 91 91 91 97 97 96 84 81 96
26 18 18 17 14 9 8 10 37 42 48 44 43 42 35 42 62 70 89 94 90 85 85 93 97 97 95 88 84 84 90 92
22 20 22 19 16 14 9 7 8 18 20 29 33 37 41 39 43 48 51 46 55 88 73 81 98 97 86 94 87 83 94 92
20 19 22 23 18 16 16 13 9 8 7 6 9 15 30 37 39 49 59 46 42 54 83 75 74 84 91 98 99 93 88 88
18 22 22 25 21 18 21 21 21 20 18 16 13 6 15 44 52 49 54 54 57 57 64 57 43 44 67 86 96 99 97 98
23 21 30 26 24 18 20 22 22 21 23 22 20 20 13 18 36 36 32 46 49 36 27 32 34 50 90 98 97 92 92 96
16 22 25 30 26 18 21 26 26 22 18 23 24 24 24 21 16 13 24 28 27 29 24 21 29 35 36 42 68 85 91 95
17 20 21 34 30 26 22 24 28 25 22 18 18 20 29 32 34 28 20 16 15 15 17 22 26 28 24 30 40 36 37 54
30 20 22 24 33 34 30 27 28 27 23 24 22 21 23 28 34 40 47 52 46 40 45 35 43 61 60 58 34 46 53 50
63 31 20 22 26 31 35 32 29 30 25 21 24 23 24 26 27 27 26 23 23 34 44 52 54 52 54 60 60 57 33 42
61 61 44 21 22 25 32 39 40 34 35 35 27 28 28 31 32 34 24 25 24 24 24 26 26 22 20 20 39 70 69 64
64 70 68 62 43 24 29 39 44 49 48 47 48 39 38 36 38 43 37 28 28 32 28 25 23 26 27 24 18 17 19 20
87 94 81 70 66 80 83 66 33 30 40 51 50 54 52 43 37 39 44 44 48 54 42 30 34 45 50 41 40 29 16 14
89 100 97 94 67 68 62 58 92 97 80 51 53 53 53 53 48 40 44 50 55 70 69 56 52 42 43 57 57 53 51 48
94 99 97 99 94 80 71 68 76 85 96 97 94 83 65 57 55 55 37 36 45 55 76 93 85 68 52 42 48 40 36 46

GFSFLT1_500_rhum_078.txt.gz
RH
29 19 20 25 29 16 14 24 36 34 60 67 81 88 97 96 96 97 95 97 99 98 90 95 92 96 100 97 92 89 98 78
30 17 24 22 21 12 21 38 41 40 80 46 66 88 92 91 96 91 95 96 98 98 96 92 98 97 100 97 96 87 85 77
35 36 26 26 12 12 21 36 48 37 52 34 63 99 99 98 92 87 89 96 96 96 97 96 98 100 96 94 94 95 82 89
32 41 34 18 12 11 13 25 51 46 34 58 84 83 89 95 94 94 95 96 94 91 98 97 88 89 85 77 74 83 91 95
34 46 28 15 14 11 10 12 40 53 48 76 57 42 91 97 97 97 97 96 97 99 98 97 94 83 82 84 79 81 83 91
31 59 24 17 16 12 8 8 16 37 47 50 52 48 52 89 92 96 97 97 97 96 97 94 91 88 89 88 78 78 77 95
53 54 26 20 19 15 13 8 8 15 19 27 33 40 43 36 56 84 94 94 94 89 89 91 94 91 90 88 94 92 93 96
36 41 32 26 22 18 17 16 11 8 7 7 10 17 34 48 43 44 53 63 58 67 94 80 74 85 92 93 96 96 95 97
59 82 40 29 27 22 20 18 21 19 17 16 10 6 13 55 59 58 74 76 55 48 69 81 87 78 80 79 80 84 84 94
77 41 37 34 32 24 20 22 19 22 21 20 20 18 13 21 62 70 68 72 71 71 63 62 55 35 36 45 58 84 93 94
90 39 33 38 32 25 20 22 22 21 18 20 23 23 23 18 16 30 32 31 31 36 38 32 32 33 34 35 66 96 92 92
54 30 31 33 33 28 23 20 26 27 23 16 16 17 18 26 28 20 16 16 17 17 19 20 26 33 35 34 32 43 48 66
79 31 25 27 37 33 28 27 26 28 30 26 24 20 19 22 31 38 42 44 45 45 33 30 29 26 30 47 54 55 38 39
77 51 29 32 35 37 35 34 32 28 30 31 28 26 23 22 20 22 26 29 29 34 42 52 57 58 57 51 53 57 64 66
54 61 61 46 30 39 44 41 42 41 38 37 39 29 27 27 30 34 29 28 22 24 23 22 22 24 27 27 24 21 20 41
61 71 78 84 81 55 29 29 30 33 38 42 39 42 40 33 36 38 36 39 34 27 28 29 31 29 27 27 27 24 19 18
60 64 69 76 76 83 95 98 89 61 66 62 47 53 52 50 42 37 40 43 43 43 42 45 48 48 39 38 36 41 35 32
68 90 79 68 74 80 80 91 99 100 100 98 88 63 60 59 60 59 55 50 41 36 43 47 60 81 82 71 64 54 46 42
89 94 94 85 83 82 83 84 83 82 72 68 98 98 99 97 96 91 89 82 71 64 62 52 41 55 68 96 98 82 61 59

GFSFLT1_500_rhum_081.txt.gz
RH
91 60 24 10 14 26 30 16 18 43 40 38 69 89 96 97 95 97 97 97 96 87 62 47 60 76 88 96 98 97 98 93
79 78 24 12 24 32 16 15 42 48 53 72 63 69 96 98 97 96 97 96 92 89 73 71 85 100 95 96 98 97 98 97
80 62 28 17 33 26 12 16 37 52 45 47 66 53 94 98 96 97 96 96 93 96 90 91 91 93 97 99 98 96 97 98
84 40 38 20 33 15 11 13 26 52 50 41 56 82 95 96 97 95 97 96 97 96 96 97 98 98 99 96 97 91 94 89
74 45 39 31 20 15 11 11 14 45 55 66 85 65 87 97 97 97 92 94 95 97 97 96 95 97 93 97 93 83 86 80
84 74 38 33 18 17 12 9 8 33 42 57 68 47 89 94 98 97 94 97 96 96 97 96 95 97 96 94 88 86 85 88
70 73 40 32 19 20 15 12 9 12 28 33 44 48 45 77 96 96 97 97 97 96 96 97 97 96 96 92 85 83 89 90
42 50 32 37 23 21 19 16 14 8 8 12 18 22 30 45 59 94 97 97 97 97 97 97 96 97 97 90 90 85 78 78
33 39 44 38 38 25 21 17 21 20 18 12 8 6 7 30 45 49 88 99 96 95 96 94 95 89 78 83 98 94 82 85
69 72 78 42 44 43 24 18 22 24 23 21 20 18 15 11 43 50 53 60 61 58 53 74 78 78 69 74 71 66 74 90
84 64 86 34 48 41 27 22 20 21 22 20 22 22 20 18 38 57 61 64 77 77 75 80 96 92 84 44 40 64 84 100
92 92 92 46 50 42 29 25 22 25 27 24 17 18 20 24 22 20 31 35 33 34 48 62 50 38 38 36 40 40 54 94
98 100 97 70 45 43 32 28 24 25 32 31 28 21 20 18 28 32 28 22 20 19 19 20 22 23 24 27 31 28 28 31
97 90 51 25 27 35 34 30 26 27 28 31 32 29 26 23 21 24 36 40 43 44 43 42 42 39 42 49 45 46 56 55
92 92 73 31 54 62 39 39 36 31 31 30 31 29 24 24 24 24 24 25 24 25 27 28 29 32 36 39 42 43 37 31
91 83 79 93 82 88 77 41 44 47 47 47 46 46 40 34 28 26 28 32 31 28 26 21 21 20 21 21 22 24 25 24
89 87 98 100 98 98 94 86 84 87 91 75 80 76 70 61 54 48 43 42 44 44 43 39 36 33 37 43 43 30 23 23
81 95 94 88 98 96 94 96 98 97 97 92 89 90 92 75 74 85 86 80 81 77 70 51 46 46 44 41 41 40 39 39
86 76 82 78 81 82 89 93 93 85 82 93 98 98 98 98 97 95 96 97 96 97 97 94 97 98 88 77 60 46 46 56

GFSFLT1_500_rhum_084.txt.gz
RH
25 28 60 70 86 34 11 14 29 17 26 38 36 38 85 96 98 96 96 97 97 95 92 94 93 60 50 61 83 81 92 98
22 36 49 89 74 16 13 25 19 21 42 46 45 56 62 90 96 96 96 97 96 95 93 94 87 59 73 83 85 98 91 80
26 33 71 94 62 15 16 27 14 22 46 48 40 54 61 81 95 97 96 95 96 95 84 91 53 54 66 84 94 97 94 97
42 74 93 90 36 15 28 16 13 18 44 50 42 34 76 91 95 96 96 95 96 96 96 69 62 79 81 92 96 98 93 95
68 92 96 76 20 19 24 14 11 13 41 52 50 68 76 95 95 96 97 97 95 96 94 95 87 83 92 91 88 89 98 96
100 88 99 51 20 25 18 16 9 9 34 44 51 64 52 86 96 97 96 97 97 96 96 95 98 97 97 97 93 94 96 96
86 93 78 30 25 23 20 16 11 8 17 22 38 50 51 68 98 97 97 96 96 95 97 97 96 96 98 96 96 90 91 95
87 89 70 35 24 20 21 20 17 13 8 10 9 23 28 38 55 96 97 96 96 97 96 97 97 97 96 97 96 96 96 98
97 94 87 34 22 21 24 22 20 17 13 12 13 8 7 9 33 52 97 98 97 97 97 97 97 98 97 96 97 96 96 97
94 98 82 25 22 28 33 22 22 20 20 18 20 20 18 13 20 38 46 96 97 97 96 98 97 96 97 96 95 91 94 94
99 100 75 23 25 32 36 26 21 22 22 19 19 20 21 18 15 49 42 48 72 76 75 68 63 76 97 87 85 83 77 68
97 100 93 39 30 36 46 32 24 22 22 24 21 15 19 19 17 47 55 51 52 57 63 60 58 62 88 92 96 54 39 40
95 100 90 62 34 45 46 36 26 23 22 24 22 21 17 16 17 21 20 28 36 33 28 28 40 53 44 33 29 27 28 32
98 100 93 72 58 53 38 44 30 27 23 25 26 24 20 18 18 15 24 24 23 21 20 19 18 17 18 19 20 21 22 24
98 87 87 65 59 71 41 36 34 30 28 29 31 30 29 21 20 19 18 19 27 33 34 36 37 39 43 48 50 54 59 58
100 92 88 74 77 72 59 55 43 34 34 36 38 42 45 45 38 27 24 24 24 22 22 20 21 21 22 26 27 27 28 27
98 92 75 78 100 98 95 98 95 91 74 78 71 67 65 63 66 60 45 37 35 37 38 39 37 35 33 28 21 20 22 27
100 91 91 99 99 96 96 97 97 97 97 94 95 95 92 94 92 89 71 68 63 66 73 76 70 69 65 54 48 45 43 45
99 99 98 97 93 98 98 98 97 97 97 99 98 94 97 100 99 99 99 98 96 96 94 93 94 82 89 94 95 87 84 86